Weather History for Fullerton, CA

Change the Weather History Date:

Friday, March 22, 2013

  Actual Average Record
Temperature  
Mean Temperature 65 °F 60 °F  
Max Temperature 73 °F 70 °F 90 °F (2008)
Min Temperature 57 °F 50 °F 43 °F (2006)
Degree Days  
Heating Degree Days 0 5  
Month to date heating degree days 44 125  
Since 1 July heating degree days 715 1047  
Cooling Degree Days 0 0  
Month to date cooling degree days 20 8  
Year to date cooling degree days 32 17  
Growing Degree Days 14 (Base 50)    
Moisture  
Dew Point 51 °F    
Average Humidity 64    
Maximum Humidity 80    
Minimum Humidity 47    
Precipitation  
Precipitation 0.00 in 0.04 in 1.22 in (2005)
Month to date precipitation 0.63 1.85  
Year to date precipitation 2.03 8.13  
Since 1 July precipitation 5.34 12.36  
Snow  
Snow 0.00 in - - ()
Month to date snowfall 0.0  
Year to date snowfall 0.0  
Since 1 July snowfall 0.0  
Snow Depth 0.00 in    
Sea Level Pressure  
Sea Level Pressure 29.84 in    
Wind  
Wind Speed 5 mph (SSE)    
Max Wind Speed 12 mph    
Max Gust Speed 16 mph    
Visibility 10 miles    
Events      
T = Trace of Precipitation, MM = Missing Value Source: NWS Daily Summary

Daily Weather History Graph

Daily Weather History Graph

Search for Another Location

Airport:

Trip Planner

Search our weather history database for the weather conditions in past years. The results will help you decide how hot, cold, wet, or windy it might be!

Date:

Astronomy

Mar. 22, 2013 Rise Set
Actual Time 6:52 AM PDT 7:05 PM PDT
Civil Twilight 6:27 AM PDT 7:30 PM PDT
Nautical Twilight 5:58 AM PDT 7:59 PM PDT
Astronomical Twilight 5:28 AM PDT 8:29 PM PDT
Moon 2:48 PM PDT (3/22) 3:44 AM PDT (3/22)
Length of Visible Light 13h 02m
Length of Day
12h 12m
Waxing Gibbous, 78% of the Moon is Illuminated
Mar 22
Waxing Gibbous
Mar 27
Full
Apr 2
Last Quarter
Apr 10
New
Apr 18
First Quarter

Hourly Weather History & Observations

Time (PDT) Temp. Dew Point Humidity Pressure Visibility Wind Dir Wind Speed Gust Speed Precip Events Conditions
12:53 AM 57.9 °F 52.0 °F 81% 29.82 in 8.0 mi East 4.6 mph - N/A   Scattered Clouds
1:02 AM 57.2 °F 51.8 °F 82% 29.82 in 8.0 mi ESE 3.5 mph - N/A   Mostly Cloudy
1:10 AM 57.2 °F 51.8 °F 82% 29.82 in 9.0 mi ESE 4.6 mph - N/A   Overcast
1:29 AM 59.0 °F 53.6 °F 82% 29.82 in 9.0 mi ESE 5.8 mph - N/A   Overcast
1:53 AM 59.0 °F 53.1 °F 81% 29.82 in 9.0 mi SE 4.6 mph - N/A   Overcast
2:05 AM 59.0 °F 53.6 °F 82% 29.83 in 9.0 mi ESE 5.8 mph - N/A   Overcast
2:31 AM 59.0 °F 53.6 °F 82% 29.82 in 9.0 mi SSE 4.6 mph - N/A   Overcast
2:53 AM 59.0 °F 53.1 °F 81% 29.82 in 10.0 mi SE 4.6 mph - N/A   Overcast
3:21 AM 59.0 °F 51.8 °F 77% 29.81 in 10.0 mi SE 4.6 mph - N/A   Overcast
3:53 AM 57.9 °F 51.1 °F 78% 29.81 in 10.0 mi Calm Calm - N/A   Overcast
4:42 AM 57.2 °F 51.8 °F 82% 29.81 in 10.0 mi Calm Calm - N/A   Overcast
4:53 AM 57.9 °F 51.1 °F 78% 29.81 in 10.0 mi East 4.6 mph - N/A   Overcast
5:18 AM 57.2 °F 51.8 °F 82% 29.81 in 10.0 mi Calm Calm - N/A   Overcast
5:53 AM 57.9 °F 50.0 °F 75% 29.82 in 10.0 mi Calm Calm - N/A   Overcast
6:53 AM 57.9 °F 50.0 °F 75% 29.84 in 10.0 mi East 3.5 mph - N/A   Overcast
7:53 AM 59.0 °F 51.1 °F 75% 29.85 in 9.0 mi ESE 3.5 mph - N/A   Overcast
8:53 AM 60.1 °F 50.0 °F 69% 29.88 in 10.0 mi SE 3.5 mph - N/A   Overcast
9:53 AM 62.1 °F 50.0 °F 65% 29.88 in 10.0 mi South 3.5 mph - N/A   Overcast
10:53 AM 64.9 °F 50.0 °F 58% 29.87 in 10.0 mi Variable 3.5 mph - N/A   Scattered Clouds
11:53 AM 69.1 °F 50.0 °F 51% 29.86 in 10.0 mi SSW 4.6 mph - N/A   Clear
12:53 PM 71.1 °F 50.0 °F 47% 29.85 in 10.0 mi Variable 4.6 mph - N/A   Clear
1:53 PM 72.0 °F 50.0 °F 46% 29.84 in 10.0 mi SSW 8.1 mph - N/A   Clear
2:53 PM 72.0 °F 50.0 °F 46% 29.83 in 10.0 mi SSW 8.1 mph - N/A   Clear
3:53 PM 70.0 °F 48.9 °F 47% 29.83 in 10.0 mi SSW 8.1 mph - N/A   Clear
4:53 PM 70.0 °F 51.1 °F 51% 29.82 in 10.0 mi SSW 9.2 mph - N/A   Clear
5:53 PM 68.0 °F 50.0 °F 52% 29.82 in 10.0 mi South 6.9 mph - N/A   Clear
6:53 PM 64.9 °F 51.1 °F 61% 29.83 in 10.0 mi South 6.9 mph - N/A   Clear
7:53 PM 62.1 °F 53.1 °F 72% 29.86 in 10.0 mi South 3.5 mph - N/A   Clear
8:53 PM 61.0 °F 50.0 °F 67% 29.88 in 10.0 mi South 4.6 mph - N/A   Clear
9:53 PM 60.1 °F 50.0 °F 69% 29.89 in 10.0 mi SE 3.5 mph - N/A   Clear
10:53 PM 59.0 °F 48.9 °F 69% 29.91 in 10.0 mi Calm Calm - N/A   Clear
11:53 PM 57.9 °F 48.9 °F 72% 29.91 in 10.0 mi Calm Calm - N/A   Clear